Location: Kawakawa
(35.3830°S, 174.0670°E)
Time: 02:27:29
(UTC+12:00)

ASTRO E2 - Pass Details

Date: 15 August 2020
Orbit: 510 x 516 km, 31.4° (Epoch: 19 September)

Event Time Altitude Azimuth Distance (km) Brightness Sun altitude
Rises 19:50:26 0° 284° (WNW) 2,632 7.6 -24.6°
Reaches altitude 10° 19:52:43 10° 290° (WNW) 1,747 6.3 -25.1°
Enters shadow 19:55:36 37° 322° (NW) 812 3.9 -25.7°
